YRMD

Details ICAO YRMD
Name Richmond
Region Australia
Timezone Australia/Brisbane (UTC+10.0)
Plans Departing 1
Arriving 3
Stats Elevation 676 ft / 206 m (AMSL)
Location -20.701166° 143.113675°
Runways 1
Magnetic Variation 6.661° E
Sunrise 2018-05-24 20:55:09 UTC / 2018-05-25 06:55:09 Local
Sunset 2018-05-25 07:56:36 UTC / 2018-05-25 17:56:36 Local
Advertisement - Login to hide

Runways

ID Width Length Bearing (true) Bearing (mag) Surface Threshold Offset Overrun Length
09 98 ft / 30 m 4,986 ft / 1,520 m 98.70° 92.04° Asphalt 0 ft / 0 m 0 ft / 0 m
27 98 ft / 30 m 4,986 ft / 1,520 m 278.70° 272.04° Asphalt 0 ft / 0 m 0 ft / 0 m

Map

Weather


0- 5 10 15 20 25 30 35+ Temperature / ° C

Clouds and Precipitation
Forecast for 2018-05-24 18:00 UTC. Updated an hour ago

Ground ~20,000 ft ~40,000 ft Winds

METAR

YRMD 241800Z AUTO 09006KT 9999 // NCD 16/11 Q1016

TAF

Not found

Frequencies

Unicom 126.70 MHz CTAF
Warning: Do not use this data for real-world aviation or navigation. No guarantee of current accuracy is given.